CW4427 Weather Reports


Display with metric or nautical units.
time (UTC)temp
F
wind
direction
speed
MPH
gust
MPH
rain 1hr
in
rain 24hr
in
rain mn
in
humidity
%
barometer
mb
20260502163902 69 355 2.0 10.0 0.00 0.00 0.00 41 1018.6
20260502162901 69 317 3.0 8.0 0.00 0.00 0.00 41 1018.7
20260502161400 70 293 4.0 7.0 0.00 0.00 0.00 41 1018.9
20260502160359 69 334 3.0 9.0 0.00 0.00 0.00 43 1018.9
20260502151857 67 327 2.0 9.0 0.00 0.00 0.00 43 1018.9
20260502151357 67 215 2.0 9.0 0.00 0.00 0.00 43 1018.9
20260502150857 67 231 7.0 9.0 0.00 0.00 0.00 43 1018.9
20260502150357 66 303 1.0 3.0 0.00 0.00 0.00 45 1018.8
20260502130419 54 27 0.0 0.0 0.00 0.00 0.00 82 1018.3
20260502123416 50 27 0.0 0.0 0.00 0.00 0.00 87 1018.1
20260502122915 49 27 0.0 0.0 0.00 0.00 0.00 89 1017.9
20260502122414 48 137 0.0 1.0 0.00 0.00 0.00 90 1017.8
20260502121914 48 137 0.0 1.0 0.00 0.00 0.00 91 1017.7
20260502120413 45 214 0.0 0.0 0.00 0.00 0.00 93 1017.5
20260502115912 45 214 0.0 0.0 0.00 0.00 0.00 93 1017.5
20260502115412 44 214 0.0 0.0 0.00 0.00 0.00 92 1017.4
20260502114912 44 214 0.0 0.0 0.00 0.00 0.00 92 1017.3
20260502114411 44 214 0.0 0.0 0.00 0.00 0.00 92 1017.3
20260502113410 44 214 0.0 0.0 0.00 0.00 0.00 92 1017.1
20260502112909 44 214 0.0 0.0 0.00 0.00 0.00 92 1017.2
20260502112409 43 214 0.0 0.0 0.00 0.00 0.00 92 1017.2
20260502111909 43 214 0.0 1.0 0.00 0.00 0.00 92 1017.1
20260502111408 43 217 0.0 1.0 0.00 0.00 0.00 92 1017.2
20260502110908 44 58 0.0 0.0 0.00 0.00 0.00 92 1017.0
20260502110407 44 58 0.0 0.0 0.00 0.00 0.00 92 1017.1
20260502105406 44 58 0.0 0.0 0.00 0.00 0.00 91 1017.1
20260502104905 44 58 0.0 0.0 0.00 0.00 0.00 91 1017.0
20260502104405 44 58 0.0 0.0 0.00 0.00 0.00 91 1017.0
20260502103404 44 58 0.0 0.0 0.00 0.00 0.00 91 1016.9
20260502102903 44 58 0.0 0.0 0.00 0.00 0.00 91 1016.8
20260502102404 44 58 0.0 0.0 0.00 0.00 0.00 91 1016.8
20260502101402 44 58 0.0 0.0 0.00 0.00 0.00 90 1016.7
20260502100902 44 58 0.0 0.0 0.00 0.00 0.00 90 1016.8
20260502100401 44 58 0.0 0.0 0.00 0.00 0.00 90 1016.8
20260502091356 45 58 0.0 0.0 0.00 0.00 0.00 86 1016.6
20260502090856 46 58 0.0 0.0 0.00 0.00 0.00 85 1016.6
20260502090355 46 58 0.0 0.0 0.00 0.00 0.00 85 1016.6
20260502071415 49 58 0.0 0.0 0.00 0.00 0.00 77 1016.7
20260502070914 50 58 0.0 0.0 0.00 0.00 0.00 78 1016.7
20260502070413 50 58 0.0 0.0 0.00 0.00 0.00 77 1016.7
20260502065913 50 58 0.0 0.0 0.00 0.00 0.00 75 1016.8
20260502065412 50 58 0.0 0.0 0.00 0.00 0.00 73 1016.8
20260502064912 51 58 0.0 0.0 0.00 0.00 0.00 73 1016.8
20260502064411 51 58 0.0 0.0 0.00 0.00 0.00 73 1016.9
20260502063911 51 58 0.0 0.0 0.00 0.00 0.00 74 1017.0
20260502063411 51 58 0.0 0.0 0.00 0.00 0.00 73 1017.1
20260502062910 52 58 0.0 0.0 0.00 0.00 0.00 74 1017.3
20260502062410 52 58 0.0 0.0 0.00 0.00 0.00 73 1017.3
20260502061909 52 58 0.0 0.0 0.00 0.00 0.00 72 1017.5
20260502061409 52 58 0.0 0.0 0.00 0.00 0.00 70 1017.4
20260502060908 52 58 0.0 0.0 0.00 0.00 0.00 70 1017.3
20260502060408 52 58 0.0 0.0 0.00 0.00 0.00 72 1017.3
20260502055907 52 58 0.0 0.0 0.00 0.00 0.00 72 1017.5
20260502054906 53 58 0.0 0.0 0.00 0.00 0.00 72 1017.3
20260502054406 53 58 0.0 0.0 0.00 0.00 0.00 69 1017.3
20260502052904 53 58 0.0 0.0 0.00 0.00 0.00 70 1017.1
20260502052404 53 58 0.0 1.0 0.00 0.00 0.00 70 1017.1
20260502051903 53 58 0.0 1.0 0.00 0.00 0.00 70 1017.0
20260502051403 52 58 0.0 0.0 0.00 0.00 0.00 70 1017.1
20260502050402 52 58 0.0 0.0 0.00 0.00 0.00 70 1017.1
20260502045901 53 58 0.0 0.0 0.00 0.00 0.00 69 1017.1
20260502045401 53 58 0.0 0.0 0.00 0.00 0.00 67 1017.2
20260502044900 53 58 0.0 0.0 0.00 0.00 0.00 69 1017.1
20260502044400 53 58 0.0 0.0 0.00 0.00 0.00 73 1017.0
20260502043359 53 58 0.0 0.0 0.00 0.00 0.00 70 1017.0
20260502042859 53 58 0.0 0.0 0.00 0.00 0.00 67 1016.9
20260502042358 53 58 0.0 0.0 0.00 0.00 0.00 68 1016.8
20260502041858 53 58 0.0 0.0 0.00 0.00 0.00 69 1016.8
20260502041357 54 58 0.0 0.0 0.00 0.00 0.00 69 1016.8
20260502040857 54 58 0.0 0.0 0.00 0.00 0.00 68 1016.6
20260502035856 54 58 0.0 0.0 0.00 0.00 0.00 66 1016.5
20260502035355 54 58 0.0 0.0 0.00 0.00 0.00 66 1016.4
20260502034855 55 58 0.0 0.0 0.00 0.00 0.00 64 1016.5
20260502034354 55 58 0.0 0.0 0.00 0.00 0.00 60 1016.5
20260502033924 55 58 0.0 1.0 0.00 0.00 0.00 64 1016.5
20260502033423 55 58 0.0 2.0 0.00 0.00 0.00 63 1016.5
20260502032923 54 58 0.0 2.0 0.00 0.00 0.00 66 1016.4
20260502032422 54 59 0.0 0.0 0.00 0.00 0.00 67 1016.4
20260502031922 54 14 0.0 0.0 0.00 0.00 0.00 69 1016.5
20260502030921 55 14 0.0 0.0 0.00 0.00 0.00 69 1016.8
20260502030421 55 14 0.0 0.0 0.00 0.00 0.00 68 1016.9
20260502025920 55 14 0.0 0.0 0.00 0.00 0.00 67 1016.9
20260502025420 55 14 0.0 0.0 0.00 0.00 0.00 68 1016.8
20260502024919 55 14 0.0 0.0 0.00 0.00 0.00 67 1017.0
20260502024419 55 14 0.0 0.0 0.00 0.00 0.00 66 1017.0
20260502023918 55 14 0.0 0.0 0.00 0.00 0.00 65 1017.2
20260502023418 55 14 0.0 0.0 0.00 0.00 0.00 65 1017.2
20260502022917 55 14 0.0 0.0 0.00 0.00 0.00 64 1017.4
20260502022417 56 14 0.0 0.0 0.00 0.00 0.00 63 1017.4
20260502021917 56 14 0.0 0.0 0.00 0.00 0.00 64 1017.6
20260502021416 56 14 0.0 0.0 0.00 0.00 0.00 64 1017.5
20260502020915 56 14 0.0 0.0 0.00 0.00 0.00 63 1017.5
20260502020415 56 14 0.0 0.0 0.00 0.00 0.00 63 1017.3
20260502015914 56 14 0.0 0.0 0.00 0.00 0.00 61 1017.3
20260502015414 56 14 0.0 0.0 0.00 0.00 0.00 60 1017.1
20260502014913 57 14 0.0 0.0 0.00 0.00 0.00 61 1017.2
20260502014413 57 14 0.0 0.0 0.00 0.00 0.00 59 1017.3
20260502013412 57 14 0.0 0.0 0.00 0.00 0.00 60 1017.3
20260502012411 57 14 0.0 0.0 0.00 0.00 0.00 58 1016.8
20260502011911 57 14 0.0 0.0 0.00 0.00 0.00 59 1016.8
20260502011410 58 14 0.0 0.0 0.00 0.00 0.00 59 1016.7
20260502005408 58 14 0.0 0.0 0.00 0.00 0.00 58 1016.1
20260502004907 58 14 0.0 0.0 0.00 0.00 0.00 56 1016.2
20260502004407 59 14 0.0 0.0 0.00 0.00 0.00 56 1016.2
20260502003906 59 14 0.0 0.0 0.00 0.00 0.00 55 1016.3
20260502003406 60 14 0.0 0.0 0.00 0.00 0.00 52 1016.2
20260502002905 60 14 0.0 0.0 0.00 0.00 0.00 52 1016.1
20260502002405 61 14 0.0 0.0 0.00 0.00 0.00 53 1015.9
20260502001904 61 14 0.0 3.0 0.00 0.00 0.00 47 1015.7
20260502001404 61 14 0.0 3.0 0.00 0.00 0.00 45 1015.7
20260502000903 62 24 1.0 2.0 0.00 0.00 0.00 45 1015.8
20260502000403 62 312 0.0 3.0 0.00 0.00 0.00 45 1015.9
20260501235401 62 325 1.0 5.0 0.00 0.00 0.00 43 1015.2
20260501234901 63 339 1.0 7.0 0.00 0.00 0.00 44 1015.3
20260501234400 63 5 5.0 7.0 0.00 0.00 0.00 43 1015.2
20260501233900 63 22 1.0 5.0 0.00 0.00 0.00 42 1015.2
20260501233359 64 360 2.0 5.0 0.00 0.00 0.00 40 1015.2
20260501232859 64 9 0.0 3.0 0.00 0.00 0.00 41 1015.4
20260501232358 64 36 0.0 9.0 0.00 0.00 0.00 40 1015.1
20260501231858 64 11 1.0 9.0 0.00 0.00 0.00 40 1015.1
20260501230857 64 14 1.0 7.0 0.00 0.00 0.00 38 1015.0
20260501230357 64 63 1.0 7.0 0.00 0.00 0.00 41 1014.9
20260501225856 64 17 5.0 9.0 0.00 0.00 0.00 38 1015.0
20260501225355 64 5 1.0 9.0 0.00 0.00 0.00 37 1014.8
20260501224855 65 21 9.0 9.0 0.00 0.00 0.00 36 1014.7
20260501224354 65 22 8.0 9.0 0.00 0.00 0.00 39 1014.6
20260501223924 65 125 2.0 10.0 0.00 0.00 0.00 39 1014.5
20260501223424 66 337 3.0 10.0 0.00 0.00 0.00 39 1014.4
20260501222923 66 32 4.0 10.0 0.00 0.00 0.00 40 1014.4
20260501222352 67 46 3.0 6.0 0.00 0.00 0.00 41 1014.3
20260501221421 66 167 0.0 7.0 0.00 0.00 0.00 44 1014.3
20260501220420 65 342 3.0 10.0 0.00 0.00 0.00 41 1014.3
20260501215920 66 54 0.0 6.0 0.00 0.00 0.00 40 1014.5
20260501215419 65 103 3.0 8.0 0.00 0.00 0.00 39 1014.6
20260501214918 66 105 3.0 11.0 0.00 0.00 0.00 39 1014.6
20260501214418 66 26 1.0 11.0 0.00 0.00 0.00 36 1014.4
20260501213918 66 24 0.0 12.0 0.00 0.00 0.00 38 1014.3
20260501213418 66 355 2.0 12.0 0.00 0.00 0.00 39 1014.2
20260501212917 66 327 1.0 9.0 0.00 0.00 0.00 43 1014.2
20260501212417 66 38 3.0 12.0 0.00 0.00 0.00 44 1014.2
20260501211916 66 19 4.0 12.0 0.00 0.00 0.00 43 1014.3
20260501211416 66 27 4.0 9.0 0.00 0.00 0.00 43 1014.3
20260501210415 66 5 4.0 9.0 0.00 0.00 0.00 45 1014.5
20260501205414 66 27 2.0 12.0 0.00 0.00 0.00 45 1014.4
20260501204413 66 27 3.0 10.0 0.00 0.00 0.00 43 1014.9
20260501203912 65 93 3.0 12.0 0.00 0.00 0.00 46 1015.1
20260501203412 65 111 9.0 12.0 0.00 0.00 0.00 46 1015.3
20260501202912 66 138 3.0 8.0 0.00 0.00 0.00 43 1015.3
20260501201911 66 35 7.0 10.0 0.00 0.00 0.00 46 1015.4
20260501200909 65 322 3.0 9.0 0.00 0.00 0.00 48 1015.7
20260501200409 65 34 5.0 6.0 0.00 0.00 0.00 48 1015.8
20260501195908 65 57 3.0 10.0 0.00 0.00 0.00 51 1015.9
20260501194407 65 78 0.0 7.0 0.00 0.00 0.00 50 1016.1
20260501193906 65 323 5.0 9.0 0.00 0.00 0.00 48 1016.1
20260501193406 65 342 1.0 10.0 0.00 0.00 0.00 48 1016.2
20260501192405 65 5 2.0 7.0 0.00 0.00 0.00 48 1016.3
20260501191905 65 326 1.0 8.0 0.00 0.00 0.00 48 1016.3
20260501190904 66 44 6.0 9.0 0.00 0.00 0.00 49 1016.6
20260501190403 66 30 2.0 9.0 0.00 0.00 0.00 47 1016.5
20260501185903 66 336 3.0 9.0 0.00 0.00 0.00 45 1016.7
20260501185403 66 36 2.0 8.0 0.00 0.00 0.00 48 1016.6
20260501184902 66 310 1.0 8.0 0.00 0.00 0.00 44 1016.7
20260501183402 66 336 4.0 8.0 0.00 0.00 0.00 46 1017.1
20260501180902 65 58 1.0 11.0 0.00 0.00 0.00 47 1017.2
20260501180402 65 26 1.0 13.0 0.00 0.00 0.00 50 1017.1
20260501175902 65 18 11.0 13.0 0.00 0.00 0.00 47 1017.1
20260501174402 64 42 2.0 11.0 0.00 0.00 0.00 47 1017.1
20260501173902 65 27 4.0 12.0 0.00 0.00 0.00 49 1017.1
20260501173402 65 360 4.0 12.0 0.00 0.00 0.00 49 1016.9
20260501172902 65 33 1.0 7.0 0.00 0.00 0.00 48 1017.1
20260501170402 65 5 3.0 11.0 0.00 0.00 0.00 51 1016.9
20260501165902 65 36 4.0 11.0 0.00 0.00 0.00 49 1017.0
20260501165401 65 5 5.0 10.0 0.00 0.00 0.00 48 1017.2